Regional Weather Roundup
Issued by NWS

Home | Current Version | Previous Version | Graphics & Text | Print | Product List | Glossary Off
Versions: 1 2 3 4 5 6 7 8 9 10 11 12 13 14 15 16 17 18 19 20 21 22 23 24 25 26 27 28 29 30 31 32 33 34 35 36 37 38 39 40 41 42 43 44 45 46 47 48 49 50

000
ASUS43 KTOP 232108
RWRKS

WEATHER ROUNDUP FOR KANSAS
NATIONAL WEATHER SERVICE GOODLAND KS
400 PM CDT WED MAY 23 2018

NOTE:  "FAIR" INDICATES FEW OR NO CLOUDS BELOW 12,000 FEET WITH NO
SIGNIFICANT WEATHER AND/OR OBSTRUCTIONS TO VISIBILITY.

KSZ001>006-013>018-027>032-041>047-232200-
NORTHWEST KANSAS

CITY           SKY/WX    TMP DP  RH WIND       PRES   REMARKS
GOODLAND       PTSUNNY   82  56  40 S23G31    29.94F
HAYS           LGT RAIN  76  63  64 E6        29.96F
HILL CITY      MOSUNNY   87  62  43 S12G25    29.94F
RUSSELL        CLOUDY    87  65  47 SE23      29.96F
$$

KSZ061>065-074>080-084>089-232200-
SOUTHWEST KANSAS

CITY           SKY/WX    TMP DP  RH WIND       PRES   REMARKS
DODGE CITY     MOSUNNY   83  58  42 S16       29.97F
ELKHART        PTSUNNY   87  61  41 SW23      30.02F
GARDEN CITY    MOSUNNY   84  54  35 SW16G30   29.99S
GREAT BEND     PTSUNNY   87  65  47 S18       29.96F
LIBERAL        MOSUNNY   88  56  33 S20G25    30.00F
PRATT          MOSUNNY   87  59  37 S17G24    29.99F
$$

KSZ066>073-081>083-090>101-232200-
SOUTHEAST KANSAS

CITY           SKY/WX    TMP DP  RH WIND       PRES   REMARKS
CHANUTE        CLOUDY    82  70  66 S10       30.07R
COFFEYVILLE    LGT RAIN  69  67  93 CALM      30.06F
HUTCHINSON     SUNNY     90  60  36 SE16G25   29.99F
MEDICINE LODGE   N/A     90  58  33 S14G21    29.96F
NEWTON         MOSUNNY   87  61  41 S14       30.03R
PARSONS        TSTM      70  67  90 CALM      30.09S FOG
WICHITA INTL   MOSUNNY   89  64  43 SE20      30.01R
WICHITA JABRA  SUNNY     87  63  44 S14G21    30.02R
WICHITA MCCONL SUNNY     88  63  43 S15G21    30.02
WINFIELD       SUNNY     87  65  47 SE12G21   30.03S
$$

KSZ007>012-019>026-033>040-048>060-102>105-232200-
NORTHEAST KANSAS

CITY           SKY/WX    TMP DP  RH WIND       PRES   REMARKS
CONCORDIA      CLOUDY    89  57  33 S17G26    29.97F
EMPORIA        MOSUNNY   85  68  56 SE7       30.04R
LAWRENCE       MOSUNNY   91  65  41 SE13      30.02F
MANHATTAN      SUNNY     90  62  39 SE16G23   29.99F
MARYSVILLE     MOSUNNY   88  64  45 S13G18    29.99F
OLATHE IND     MOSUNNY   88  64  44 SE14G21   30.05F
OLATHE EXE     MOSUNNY   85  65  51 SE12      30.05F
SALINA         CLOUDY    92  62  36 SE18      29.97F
TOPEKA BILLARD CLOUDY    89  68  49 SE13G21   30.02S
TOPEKA FORBES  PTSUNNY   88  65  46 SE10      30.03F
$$



USA.gov is the U.S. government's official web portal to all federal, state and local government web resources and services.